[[{"header":{"parameterUnit":"m.s-1","parameterCategory":2,"la1":30.2991,"la2":30.254,"lo1":-89.0895,"lo2":-89.0444,"dy":0.0017,"dx":0.0017,"nx":28,"ny":28,"refTime":"2025-03-09T03:00:00:Z","depth":"0","parameterNumber":2,"parameterNumberName":"U-component_of_CURRENTS"},"data":[0,0,0,0,0,0,0,0,0,0,0,0,0,0,0,0,0,0,0,0,0,0,0,0,0,0,0,0,0,0,0,0,0,0,0,0,0,0,0,0,0,0,0,0,0,0,0,0,0,0,0,0,0,0,0,0,0,0,0.1784,0.1784,0,0.1783,0.1783,0.1783,0.1776,0.1776,0.1776,0.1776,0.1755,0.1754,0.1753,0,0,0,0,0,0,0,0,0,0,0,0,0,0.1731,0.1732,0.1784,0.1784,0.1784,0.1783,0.1783,0.1783,0.1776,0.1776,0.1776,0.1776,0.1755,0.1754,0.1753,0,0,0,0,0,0,0,0,0,0,0,0,0,0.1742,0.1732,0.1784,0.1783,0.1783,0.1784,0.1783,0.1783,0.1776,0.1776,0.1776,0.1776,0.1755,0.1754,0.1753,0.1744,0,0,0.175,0.175,0,0,0,0,0,0,0,0,0.1741,0.1743,0.1783,0.1783,0.1783,0.1783,0.1757,0.177,0.1776,0.1775,0.1776,0.1776,0.1764,0.1762,0.1758,0.1743,0.1742,0.175,0.175,0.1749,0.1749,0,0,0,0,0,0,0,0.174,0.1743,0.178,0.1783,0.1784,0.1767,0.1768,0.1759,0.1766,0.1775,0.1775,0.178,0.1764,0.1759,0.1757,0.1742,0.175,0.1749,0.1749,0.1748,0.177,0.1771,0,0,0,0,0,0,0.1749,0.1743,0.1781,0.1781,0.1766,0.1768,0.177,0.178,0.1766,0.1766,0.178,0.178,0.176,0.1758,0.1756,0.1793,0.1749,0.1748,0.1748,0.1769,0.1771,0.1772,0,0,0,0,0,0,0.1748,0.1753,0.1781,0.1764,0.1766,0.1769,0.1781,0.178,0.1779,0.1771,0.1769,0.1781,0.176,0.1758,0.1762,0.1791,0.1748,0.1747,0.1768,0.177,0.1771,0.1836,0,0,0,0,0,0,0.1747,0.1753,0.1758,0.1765,0.1768,0.1788,0.1781,0.178,0.1783,0.1783,0.1771,0.1769,0.176,0.1764,0.1761,0.1789,0.1746,0.1766,0.1769,0.1771,0.1832,0.184,0.1846,0,0,0,0,0,0.1745,0.1754,0.1758,0.1762,0.1777,0.1788,0.1788,0.1788,0.1783,0.1786,0.1784,0.1769,0.1776,0.1763,0.176,0.1788,0.1765,0.1768,0.1771,0.1829,0.1838,0.1846,0,0,0,0,0,0,0.1729,0.1755,0.1759,0.1774,0.1784,0.1788,0.179,0.179,0.1789,0.1788,0.1777,0.1775,0.1794,0.1778,0.1765,0.1802,0.1771,0.1773,0.1817,0.1825,0.1832,0.1848,0.1745,0,0,0,0,0,0.173,0.1747,0.1764,0.1775,0.1782,0.1786,0.1788,0.179,0.1794,0.1793,0.179,0.179,0.1801,0.1802,0.1804,0.1815,0.1826,0.1833,0.184,0.1846,0.1858,0.1893,0.1905,0.1781,0.1781,0.1781,0,0,0.1726,0.1743,0.1751,0.1773,0.1779,0.18,0.1787,0.1796,0.1817,0.179,0.1812,0.181,0.181,0.1833,0.184,0.1823,0.1891,0.1849,0.1854,0.1863,0.1897,0.1909,0.192,0.1782,0.1782,0.1782,0,0,0.1731,0.1744,0.176,0.1776,0.1794,0.1804,0.181,0.1821,0.1828,0.1845,0.1844,0.1863,0.1861,0.1882,0.1888,0.1931,0.1927,0.1928,0.1975,0.2009,0.202,0.2029,0.2078,0.2091,0.193,0.1931,0.1931,0,0.1723,0.1753,0.1764,0.1788,0.1806,0.1811,0.1835,0.1848,0.186,0.1877,0.186,0.1899,0.1892,0.1945,0.1963,0.1949,0.1968,0.1943,0.202,0.2029,0.2038,0.2085,0.2099,0.1934,0.1934,0.1933,0.1933,0,0.1745,0.1771,0.1782,0.1823,0.1841,0.186,0.1888,0.1909,0.1917,0.1933,0.1976,0.1976,0.2003,0.2007,0.1996,0.2061,0.2056,0.2026,0.2,0.2054,0.21,0.2114,0.1939,0.1938,0.1937,0.1936,0,0,0.1725,0.1786,0.179,0.1818,0.1862,0.188,0.1928,0.1974,0.2013,0.2025,0.2077,0.2101,0.2102,0.2111,0.2108,0.2135,0.2214,0.2108,0.2108,0.216,0.2307,0.2353,0.2372,0.2194,0.2196,0.2197,0.2322,0,0.1738,0.179,0.182,0.1872,0.1902,0.1937,0.1984,0.2026,0.206,0.2111,0.2131,0.2171,0.2143,0.2161,0.2189,0.2207,0.2249,0.2185,0.2244,0.2246,0.2283,0.2389,0.2333,0.2444,0.2335,0.2337,0.2339,0,0.175,0.1787,0.1838,0.1909,0.1925,0.1957,0.2039,0.2083,0.216,0.2187,0.2238,0.2252,0.2315,0.2267,0.2348,0.2307,0.232,0.2327,0.2331,0.236,0.2317,0.2368,0.2471,0.245,0.2359,0.2357,0.2356,0,0.173,0.18,0.1841,0.1864,0.1944,0.1975,0.2021,0.2101,0.2151,0.2242,0.2287,0.2351,0.2394,0.2418,0.2452,0.24,0.2539,0.2465,0.2526,0.2529,0.2489,0.2486,0.2581,0.2529,0.2529,0.2528,0.2528,0,0.1734,0.1766,0.1833,0.1855,0.1908,0.1969,0.2036,0.2096,0.2189,0.2263,0.2322,0.2397,0.2431,0.251,0.2508,0.2593,0.2594,0.2575,0.2578,0.2513,0.251,0.2492,0.2468,0.2533,0.2532,0.2531,0.253,0,0.1702,0.1749,0.1795,0.1873,0.1897,0.1932,0.2027,0.2084,0.2183,0.2287,0.2321,0.2451,0.2571,0.2625,0.2695,0.2687,0.2693,0.2763,0.2701,0.2697,0.2705,0.2686,0.2663,0.2574,0.2844,0.2846,0.2848,0,0.1691,0.1713,0.1785,0.1809,0.184,0.1902,0.1951,0.2059,0.2134,0.2322,0.2378,0.2537,0.2643,0.2804,0.2839,0.2903,0.2793,0.2881,0.2769,0.2748,0.2728,0.2574,0.2487,0.2742,0.2743,0.2744,0.2744,0,0.1664,0.1684,0.1719,0.1766,0.181,0.1866,0.1953,0.2001,0.2154,0.2253,0.2409,0.251,0.2725,0.2799,0.2927,0.2939,0.2778,0.2896,0.2879,0.2688,0.252,0.2421,0.2627,0.275,0.2749,0.2749,0.2749,0.2748,0.1627,0.1636,0.1676,0.1717,0.1767,0.1813,0.1835,0.1943,0.2037,0.2184,0.2346,0.249,0.2719,0.2896,0.2895,0.2933,0.2833,0.2863,0.2855,0.2709,0.2587,0.2836,0.2955,0.2956,0.2957,0.2957,0.2957,0,0.1569,0.159,0.1627,0.1663,0.1687,0.174,0.1825,0.1846,0.1915,0.2105,0.2229,0.2493,0.265,0.281,0.2971,0.2908,0.2695,0.2855,0.2611,0.253,0.2779,0.2741,0.2814,0.2814,0.2814,0.2814,0.2814,0.2814,0.1536,0.154,0.1563,0.1572,0.16,0.1607,0.1632,0.1678,0.1794,0.1955,0.212,0.2288,0.2683,0.2991,0.303,0.2937,0.2686,0.2606,0.2549,0.2746,0.2743,0.2741,0.27,0.2765,0.2764,0.2166,0.2163,0.216]},{"header":{"parameterUnit":"m.s-1","parameterCategory":2,"la1":30.2991,"la2":30.254,"lo1":-89.0895,"lo2":-89.0444,"dy":0.0017,"dx":0.0017,"nx":28,"ny":28,"refTime":"2025-03-09T03:00:00:Z","depth":"0","parameterNumber":3,"parameterNumberName":"V-component_of_CURRENTS"},"data":[0,0,0,0,0,0,0,0,0,0,0,0,0,0,0,0,0,0,0,0,0,0,0,0,0,0,0,0,0,0,0,0,0,0,0,0,0,0,0,0,0,0,0,0,0,0,0,0,0,0,0,0,0,0,0,0,0,0,-0.03,-0.0301,0,-0.0315,-0.0315,-0.0315,-0.0338,-0.0338,-0.0338,-0.0339,-0.039,-0.0391,-0.0392,0,0,0,0,0,0,0,0,0,0,0,0,0,-0.03,-0.03,-0.03,-0.0301,-0.0301,-0.0315,-0.0315,-0.0315,-0.0338,-0.0338,-0.0339,-0.0339,-0.039,-0.0391,-0.0392,0,0,0,0,0,0,0,0,0,0,0,0,0,-0.0306,-0.03,-0.03,-0.0313,-0.0315,-0.0315,-0.0315,-0.0315,-0.0338,-0.0338,-0.0339,-0.0339,-0.039,-0.0391,-0.0393,-0.0391,0,0,-0.0397,-0.0398,0,0,0,0,0,0,0,0,-0.0306,-0.0306,-0.0311,-0.0312,-0.0314,-0.0325,-0.0334,-0.0342,-0.0337,-0.0329,-0.0339,-0.0339,-0.0371,-0.0374,-0.0376,-0.0393,-0.0396,-0.0397,-0.0398,-0.0399,-0.0399,0,0,0,0,0,0,0,-0.0305,-0.0306,-0.0307,-0.0311,-0.0313,-0.0321,-0.0322,-0.0335,-0.0348,-0.033,-0.0332,-0.0332,-0.0372,-0.0374,-0.0377,-0.0396,-0.0397,-0.0399,-0.04,-0.04,-0.0456,-0.0456,0,0,0,0,0,0,-0.0302,-0.0305,-0.0306,-0.0307,-0.0311,-0.032,-0.0322,-0.0321,-0.0347,-0.0351,-0.0332,-0.0333,-0.0371,-0.0375,-0.0379,-0.0408,-0.0399,-0.04,-0.0401,-0.0455,-0.0456,-0.0456,0,0,0,0,0,0,-0.0301,-0.0301,-0.0306,-0.0306,-0.0307,-0.032,-0.0318,-0.0321,-0.0324,-0.0348,-0.0353,-0.0333,-0.0372,-0.0377,-0.0395,-0.0409,-0.0401,-0.0403,-0.0454,-0.0455,-0.0456,-0.0446,0,0,0,0,0,0,-0.0301,-0.0301,-0.0296,-0.0306,-0.0307,-0.0301,-0.0318,-0.0321,-0.0324,-0.0326,-0.035,-0.0355,-0.0373,-0.0392,-0.0396,-0.0411,-0.0404,-0.0454,-0.0455,-0.0456,-0.0446,-0.0447,-0.0447,0,0,0,0,0,-0.0301,-0.0287,-0.0296,-0.0296,-0.0301,-0.03,-0.0301,-0.0313,-0.0323,-0.0319,-0.0342,-0.0355,-0.0402,-0.0393,-0.0398,-0.0414,-0.0453,-0.0455,-0.0456,-0.0446,-0.0447,-0.0447,0,0,0,0,0,0,-0.0277,-0.0288,-0.0298,-0.0287,-0.0293,-0.0304,-0.0298,-0.031,-0.0323,-0.0327,-0.0355,-0.0361,-0.0386,-0.0398,-0.0387,-0.0434,-0.0433,-0.0435,-0.0424,-0.0425,-0.0425,-0.0423,-0.0405,0,0,0,0,0,-0.0272,-0.0269,-0.028,-0.0271,-0.0273,-0.0287,-0.0288,-0.0296,-0.031,-0.0316,-0.0336,-0.0363,-0.0393,-0.0406,-0.0427,-0.0444,-0.0469,-0.046,-0.0461,-0.0462,-0.0464,-0.0524,-0.053,-0.046,-0.046,-0.046,0,0,-0.0259,-0.0265,-0.0262,-0.0266,-0.0272,-0.0272,-0.0288,-0.0286,-0.0293,-0.032,-0.0333,-0.0362,-0.0398,-0.0424,-0.0436,-0.0436,-0.0491,-0.0463,-0.0463,-0.0465,-0.0526,-0.0533,-0.0539,-0.0461,-0.0461,-0.0461,0,0,-0.0231,-0.0239,-0.0228,-0.0234,-0.0242,-0.0254,-0.0253,-0.0265,-0.0278,-0.0292,-0.0325,-0.0362,-0.0388,-0.0428,-0.045,-0.0467,-0.0492,-0.0474,-0.0476,-0.0534,-0.054,-0.0546,-0.0569,-0.0577,-0.0475,-0.0475,-0.0475,0,-0.0215,-0.0206,-0.0223,-0.0217,-0.0219,-0.0246,-0.0236,-0.0254,-0.0272,-0.0287,-0.0293,-0.0367,-0.0395,-0.0451,-0.0461,-0.047,-0.0494,-0.0468,-0.0535,-0.0542,-0.0548,-0.057,-0.0579,-0.0474,-0.0474,-0.0474,-0.0474,0,-0.0183,-0.0179,-0.0172,-0.018,-0.0185,-0.0178,-0.0207,-0.0219,-0.024,-0.0265,-0.0314,-0.0362,-0.0407,-0.043,-0.0451,-0.0514,-0.0513,-0.0529,-0.0532,-0.0555,-0.0576,-0.0586,-0.0474,-0.0474,-0.0474,-0.0474,0,0,-0.0139,-0.0147,-0.0145,-0.0142,-0.0164,-0.0161,-0.0182,-0.0206,-0.0219,-0.0264,-0.0289,-0.0367,-0.0399,-0.0428,-0.047,-0.0527,-0.059,-0.0545,-0.0548,-0.0564,-0.0697,-0.0647,-0.0653,-0.0621,-0.0623,-0.0624,-0.0687,0,-0.0108,-0.0086,-0.0105,-0.009,-0.0081,-0.0118,-0.0131,-0.0163,-0.0198,-0.0229,-0.031,-0.0345,-0.0398,-0.0417,-0.0489,-0.0561,-0.0617,-0.0569,-0.0675,-0.0677,-0.063,-0.0664,-0.062,-0.0669,-0.0697,-0.0698,-0.07,0,-0.0071,-0.0062,-0.0039,-0.0043,-0.0042,-0.0044,-0.007,-0.0085,-0.0151,-0.0176,-0.0248,-0.0302,-0.0395,-0.0428,-0.0583,-0.055,-0.0624,-0.0684,-0.0688,-0.0654,-0.0647,-0.0656,-0.0686,-0.0842,-0.0715,-0.0713,-0.0712,0,-0.0025,-0.0016,0.0006,0.0005,-0.0007,-0.0009,-0.002,-0.007,-0.0074,-0.0145,-0.0147,-0.0279,-0.0312,-0.0455,-0.0574,-0.0586,-0.0726,-0.0757,-0.0785,-0.0781,-0.0769,-0.0761,-0.0962,-0.0872,-0.0872,-0.0872,-0.0871,0,0.0017,0.0035,0.0031,0.0044,0.0073,0.004,0.0055,0.0024,-0.0013,0.0001,-0.0113,-0.0114,-0.0321,-0.0418,-0.0559,-0.0685,-0.0718,-0.079,-0.0803,-0.0761,-0.0751,-0.0905,-0.1005,-0.0874,-0.0873,-0.0873,-0.0873,0,0.0064,0.0061,0.0091,0.0091,0.0098,0.0116,0.0123,0.0137,0.0093,0.0109,0.0096,0.0003,-0.0106,-0.0301,-0.0502,-0.0627,-0.0855,-0.0811,-0.0724,-0.0727,-0.0898,-0.0997,-0.1204,-0.1265,-0.0868,-0.0867,-0.0866,0,0.0089,0.0111,0.0138,0.017,0.0174,0.0198,0.0228,0.0196,0.0227,0.0204,0.0238,0.0137,0.0118,-0.0152,-0.0399,-0.0635,-0.0811,-0.0756,-0.0785,-0.0909,-0.1031,-0.1106,-0.1148,-0.0765,-0.0764,-0.0762,-0.0762,0,0.0142,0.0152,0.0181,0.0248,0.029,0.034,0.0383,0.0427,0.0413,0.0443,0.0491,0.0468,0.0238,0.0042,-0.0282,-0.0465,-0.0859,-0.0738,-0.0916,-0.1009,-0.1059,-0.112,-0.0702,-0.0752,-0.0753,-0.0753,-0.0754,-0.0754,0.0186,0.0223,0.0271,0.0339,0.0397,0.0488,0.0556,0.0621,0.0701,0.0777,0.0724,0.0753,0.0419,0.0004,-0.0268,-0.0733,-0.0772,-0.0881,-0.1,-0.107,-0.1114,-0.0646,-0.0677,-0.0678,-0.0678,-0.0679,-0.0679,0,0.025,0.0296,0.0362,0.0451,0.0543,0.0552,0.0673,0.0763,0.0906,0.0981,0.1033,0.091,0.0501,0.0043,-0.0573,-0.0924,-0.1083,-0.1148,-0.1282,-0.132,-0.0945,-0.0924,-0.0949,-0.0949,-0.0949,-0.0949,-0.0949,-0.0948,0.0288,0.0371,0.0409,0.0572,0.0641,0.0783,0.087,0.1004,0.1104,0.1254,0.1298,0.1286,0.0958,-0.0243,-0.1042,-0.1253,-0.1543,-0.1596,-0.1747,-0.1527,-0.1512,-0.1498,-0.1503,-0.1649,-0.165,-0.2051,-0.2055,-0.2059]}],[{"header":{"parameterUnit":"m.s-1","parameterCategory":2,"la1":30.2991,"la2":30.254,"lo1":-89.0895,"lo2":-89.0444,"dy":0.0017,"dx":0.0017,"nx":28,"ny":28,"refTime":"2025-03-09T03:00:00:Z","depth":"2","parameterNumber":2,"parameterNumberName":"U-component_of_CURRENTS"},"data":[0,0,0,0,0,0,0,0,0,0,0,0,0,0,0,0,0,0,0,0,0,0,0,0,0,0,0,0,0,0,0,0,0,0,0,0,0,0,0,0,0,0,0,0,0,0,0,0,0,0,0,0,0,0,0,0,0,0,0.1596,0.1596,0,0.1603,0.1603,0.1603,0.1606,0.1607,0.1607,0.1607,0.1596,0.1596,0.1595,0,0,0,0,0,0,0,0,0,0,0,0,0,0.1553,0.1554,0.1596,0.1596,0.1596,0.1603,0.1603,0.1603,0.1606,0.1607,0.1607,0.1607,0.1596,0.1596,0.1595,0,0,0,0,0,0,0,0,0,0,0,0,0,0.1565,0.1554,0.1596,0.16,0.1601,0.1603,0.1603,0.1603,0.1606,0.1607,0.1607,0.1607,0.1596,0.1596,0.1595,0.1585,0,0,0.1593,0.1593,0,0,0,0,0,0,0,0,0.1565,0.1567,0.1599,0.16,0.1601,0.1606,0.1584,0.1597,0.1606,0.1602,0.1607,0.1607,0.1599,0.1598,0.1596,0.1585,0.1584,0.1593,0.1593,0.1592,0.1592,0,0,0,0,0,0,0,0.1564,0.1566,0.1597,0.16,0.1601,0.1591,0.1593,0.1586,0.1597,0.1602,0.1603,0.1607,0.1599,0.1597,0.1596,0.1584,0.1593,0.1592,0.1592,0.1592,0.1619,0.162,0,0,0,0,0,0,0.1569,0.1566,0.1596,0.1597,0.1585,0.1592,0.1594,0.1602,0.1597,0.1598,0.1607,0.1607,0.1598,0.1597,0.1595,0.1641,0.1592,0.1592,0.1591,0.1618,0.1619,0.1621,0,0,0,0,0,0,0.1568,0.1571,0.1596,0.1583,0.1586,0.1593,0.1602,0.1602,0.1608,0.1601,0.1601,0.1613,0.1598,0.1596,0.1605,0.1638,0.1591,0.1591,0.1617,0.1618,0.162,0.1694,0,0,0,0,0,0,0.1566,0.1571,0.1577,0.1583,0.1587,0.1606,0.1602,0.1602,0.1611,0.1611,0.1606,0.1605,0.1598,0.1606,0.1604,0.1636,0.159,0.1615,0.1617,0.162,0.169,0.1698,0.1705,0,0,0,0,0,0.1565,0.1573,0.1578,0.1581,0.1596,0.1607,0.1607,0.1612,0.1611,0.1616,0.1619,0.1606,0.1619,0.1606,0.1604,0.1637,0.1614,0.1617,0.1619,0.1687,0.1697,0.1705,0,0,0,0,0,0,0.1553,0.1574,0.158,0.1593,0.1604,0.1608,0.1613,0.1616,0.162,0.1622,0.1614,0.1613,0.1636,0.1621,0.1608,0.1651,0.1617,0.1619,0.1669,0.1678,0.1685,0.1699,0.159,0,0,0,0,0,0.1555,0.1571,0.1585,0.1596,0.1602,0.1608,0.1613,0.1618,0.1623,0.1626,0.1626,0.163,0.1643,0.1648,0.165,0.1666,0.1674,0.1687,0.1694,0.1701,0.171,0.1745,0.1757,0.1629,0.1629,0.1629,0,0,0.1553,0.1568,0.1576,0.1595,0.1602,0.1623,0.1612,0.1623,0.1648,0.1623,0.1652,0.1652,0.1652,0.168,0.1689,0.1673,0.1746,0.1704,0.171,0.1716,0.1749,0.1762,0.1773,0.1631,0.1631,0.163,0,0,0.156,0.1571,0.1588,0.1603,0.1621,0.1631,0.1637,0.165,0.1663,0.1684,0.1685,0.1706,0.171,0.1731,0.1739,0.1785,0.1782,0.1784,0.1835,0.1869,0.188,0.189,0.1938,0.1952,0.179,0.179,0.179,0,0.1556,0.1583,0.1592,0.1615,0.1633,0.1639,0.1663,0.168,0.1696,0.1717,0.1702,0.1745,0.1741,0.1797,0.1817,0.1804,0.1825,0.1803,0.1881,0.189,0.1899,0.1946,0.1959,0.1794,0.1793,0.1793,0.1793,0,0.1577,0.1602,0.1612,0.1651,0.167,0.1689,0.1718,0.1744,0.1757,0.1775,0.1823,0.1825,0.1855,0.1861,0.1853,0.1922,0.1918,0.1886,0.1861,0.1917,0.1962,0.1975,0.1799,0.1798,0.1797,0.1796,0,0,0.156,0.1617,0.1622,0.1649,0.1692,0.171,0.1763,0.181,0.1852,0.187,0.1925,0.1955,0.1958,0.1968,0.1968,0.1997,0.2081,0.1973,0.1973,0.2027,0.2175,0.2178,0.2192,0.2063,0.2065,0.2066,0.219,0,0.1574,0.1622,0.1651,0.1704,0.1731,0.1769,0.1819,0.1865,0.1902,0.1955,0.1979,0.2022,0.1999,0.202,0.2052,0.2072,0.2115,0.2051,0.2108,0.211,0.211,0.2207,0.2036,0.2132,0.2203,0.2205,0.2206,0,0.1585,0.162,0.167,0.1741,0.1757,0.1792,0.1877,0.1924,0.2003,0.2033,0.2087,0.2101,0.2171,0.2124,0.2212,0.2174,0.2187,0.2194,0.2199,0.2183,0.2137,0.2082,0.2153,0.2228,0.2226,0.2225,0.2223,0,0.1566,0.1634,0.1676,0.1698,0.1777,0.1815,0.1863,0.1945,0.1996,0.2089,0.2131,0.2202,0.2249,0.2277,0.2315,0.2266,0.2405,0.2332,0.2354,0.2354,0.2211,0.2195,0.2394,0.2394,0.2393,0.2393,0.2393,0,0.1568,0.1601,0.167,0.1692,0.1749,0.1811,0.1882,0.1944,0.2038,0.2109,0.2168,0.2237,0.2287,0.2366,0.2369,0.2435,0.2458,0.2397,0.2396,0.2234,0.222,0.2288,0.2274,0.2398,0.2397,0.2396,0.2395,0,0.1537,0.1584,0.1631,0.1712,0.1738,0.1778,0.1879,0.1934,0.2033,0.2131,0.2166,0.2291,0.24,0.2461,0.2536,0.2519,0.2563,0.2574,0.2399,0.2376,0.2471,0.2459,0.26,0.2602,0.2603,0.2604,0.2604,0,0.1526,0.1548,0.1624,0.165,0.1685,0.1754,0.1802,0.1913,0.1982,0.216,0.2207,0.2356,0.2439,0.2584,0.2603,0.2654,0.2643,0.2509,0.2374,0.2512,0.2497,0.2484,0.2471,0.2218,0.2216,0.2214,0.2212,0,0.1498,0.1523,0.1559,0.1608,0.1655,0.1712,0.1798,0.1843,0.1991,0.2079,0.2216,0.2297,0.2472,0.2466,0.2564,0.2549,0.2484,0.247,0.2677,0.2196,0.2163,0.2144,0.2142,0.2195,0.2196,0.2198,0.2199,0.2199,0.1465,0.1475,0.1516,0.156,0.161,0.1652,0.1677,0.1776,0.186,0.1985,0.2129,0.2203,0.2302,0.2353,0.2329,0.2317,0.2454,0.2325,0.2326,0.2331,0.2268,0.2239,0.2275,0.2277,0.2279,0.228,0.2282,0,0.1409,0.143,0.1467,0.1505,0.1527,0.1584,0.1659,0.1672,0.173,0.1874,0.1975,0.1903,0.1953,0.2037,0.2006,0.204,0.1959,0.1948,0.1815,0.1838,0.1857,0.1762,0.1639,0.1636,0.1633,0.1631,0,0,0.1376,0.138,0.1401,0.1409,0.1442,0.1449,0.1472,0.1499,0.1577,0.1609,0.1658,0.1855,0.1982,0.1764,0.1779,0.1697,0.173,0.1635,0.2165,0.2031,0.2046,0.2112,0.1999,0,0,0,0,0]},{"header":{"parameterUnit":"m.s-1","parameterCategory":2,"la1":30.2991,"la2":30.254,"lo1":-89.0895,"lo2":-89.0444,"dy":0.0017,"dx":0.0017,"nx":28,"ny":28,"refTime":"2025-03-09T03:00:00:Z","depth":"2","parameterNumber":3,"parameterNumberName":"V-component_of_CURRENTS"},"data":[0,0,0,0,0,0,0,0,0,0,0,0,0,0,0,0,0,0,0,0,0,0,0,0,0,0,0,0,0,0,0,0,0,0,0,0,0,0,0,0,0,0,0,0,0,0,0,0,0,0,0,0,0,0,0,0,0,0,-0.0115,-0.0115,0,-0.0151,-0.0152,-0.0152,-0.0185,-0.0185,-0.0186,-0.0186,-0.0243,-0.0244,-0.0245,0,0,0,0,0,0,0,0,0,0,0,0,0,-0.0104,-0.0104,-0.0115,-0.0115,-0.0116,-0.0151,-0.0152,-0.0152,-0.0185,-0.0185,-0.0186,-0.0186,-0.0242,-0.0244,-0.0245,0,0,0,0,0,0,0,0,0,0,0,0,0,-0.0122,-0.0104,-0.0115,-0.0136,-0.0138,-0.0151,-0.0152,-0.0153,-0.0185,-0.0185,-0.0186,-0.0186,-0.0242,-0.0244,-0.0245,-0.0246,0,0,-0.0251,-0.0252,0,0,0,0,0,0,0,0,-0.0121,-0.0122,-0.0133,-0.0135,-0.0137,-0.0164,-0.0169,-0.0185,-0.0185,-0.0168,-0.0186,-0.0187,-0.0218,-0.0221,-0.0227,-0.0248,-0.0251,-0.0251,-0.0252,-0.0253,-0.0253,0,0,0,0,0,0,0,-0.0119,-0.0121,-0.013,-0.0133,-0.0136,-0.0154,-0.0157,-0.0172,-0.019,-0.0169,-0.0171,-0.0175,-0.0219,-0.0226,-0.0229,-0.0252,-0.0251,-0.0253,-0.0254,-0.0254,-0.0308,-0.0308,0,0,0,0,0,0,-0.0112,-0.0119,-0.0129,-0.0131,-0.013,-0.0154,-0.0157,-0.0155,-0.0189,-0.0195,-0.0174,-0.0176,-0.0222,-0.0227,-0.0231,-0.026,-0.0253,-0.0255,-0.0256,-0.0308,-0.0308,-0.0308,0,0,0,0,0,0,-0.0111,-0.0112,-0.0127,-0.0126,-0.0129,-0.0153,-0.0151,-0.0155,-0.0166,-0.0193,-0.0199,-0.0181,-0.0223,-0.0229,-0.0249,-0.0261,-0.0255,-0.0257,-0.0307,-0.0308,-0.0308,-0.03,0,0,0,0,0,0,-0.0111,-0.0112,-0.0108,-0.0125,-0.0129,-0.0131,-0.0151,-0.0156,-0.0167,-0.017,-0.02,-0.0206,-0.0224,-0.0246,-0.025,-0.0263,-0.0258,-0.0307,-0.0307,-0.0308,-0.03,-0.03,-0.03,0,0,0,0,0,-0.011,-0.0098,-0.0108,-0.0109,-0.0123,-0.0131,-0.0134,-0.0154,-0.0167,-0.0167,-0.0192,-0.0205,-0.0254,-0.0247,-0.0252,-0.0267,-0.0306,-0.0307,-0.0308,-0.03,-0.03,-0.03,0,0,0,0,0,0,-0.0087,-0.0101,-0.0112,-0.0104,-0.0117,-0.0136,-0.0137,-0.0153,-0.0172,-0.0177,-0.0206,-0.0213,-0.0236,-0.0249,-0.0242,-0.0284,-0.0284,-0.0286,-0.0276,-0.0276,-0.0277,-0.0267,-0.026,0,0,0,0,0,-0.0081,-0.0079,-0.0096,-0.009,-0.0095,-0.0117,-0.0124,-0.0137,-0.0156,-0.0165,-0.0188,-0.0215,-0.0243,-0.0257,-0.0277,-0.0296,-0.0316,-0.031,-0.031,-0.031,-0.0306,-0.0357,-0.0362,-0.0311,-0.0311,-0.0311,0,0,-0.0071,-0.0078,-0.0077,-0.0086,-0.0098,-0.01,-0.0123,-0.0128,-0.0136,-0.0168,-0.0184,-0.0213,-0.0247,-0.0272,-0.0284,-0.0285,-0.0334,-0.0311,-0.0311,-0.0307,-0.0358,-0.0363,-0.0368,-0.0312,-0.0311,-0.0311,0,0,-0.0047,-0.0055,-0.0046,-0.0056,-0.007,-0.0085,-0.0086,-0.0106,-0.0122,-0.014,-0.0172,-0.0206,-0.0238,-0.0271,-0.0292,-0.0304,-0.0332,-0.0315,-0.0312,-0.0361,-0.0366,-0.037,-0.0394,-0.04,-0.0318,-0.0318,-0.0318,0,-0.0034,-0.0025,-0.0045,-0.004,-0.0044,-0.0076,-0.0068,-0.0089,-0.0115,-0.0129,-0.0141,-0.0208,-0.0239,-0.0283,-0.0295,-0.0306,-0.0331,-0.0308,-0.0362,-0.0367,-0.0372,-0.0395,-0.0402,-0.0317,-0.0317,-0.0317,-0.0317,0,-0.0005,-0.0001,0.0005,-0.0002,-0.001,-0.0007,-0.0036,-0.0051,-0.0076,-0.0101,-0.0145,-0.0193,-0.0233,-0.0257,-0.0283,-0.0335,-0.034,-0.0355,-0.036,-0.0376,-0.0399,-0.0407,-0.0317,-0.0317,-0.0317,-0.0317,0,0,0.0031,0.0028,0.0028,0.0034,0.0012,0.0013,-0.0006,-0.0029,-0.0036,-0.0086,-0.0103,-0.0178,-0.0211,-0.0237,-0.0282,-0.0334,-0.0392,-0.0361,-0.0363,-0.0382,-0.0489,-0.0444,-0.0448,-0.0424,-0.0426,-0.0427,-0.0489,0,0.006,0.0085,0.0068,0.0084,0.0096,0.0059,0.005,0.002,-0.0012,-0.0037,-0.0113,-0.0144,-0.0203,-0.0225,-0.029,-0.0365,-0.0414,-0.0373,-0.0472,-0.0475,-0.0432,-0.0456,-0.0424,-0.0473,-0.0497,-0.0498,-0.0499,0,0.0093,0.0106,0.0132,0.0135,0.0136,0.0134,0.0117,0.0104,0.005,0.0024,-0.0038,-0.0088,-0.0178,-0.0215,-0.0364,-0.0338,-0.0412,-0.0471,-0.0475,-0.044,-0.0444,-0.0464,-0.0487,-0.0512,-0.0511,-0.051,-0.0509,0,0.0136,0.015,0.0175,0.0175,0.0171,0.0168,0.0159,0.0121,0.0122,0.006,0.0059,-0.006,-0.0096,-0.023,-0.0355,-0.0369,-0.0499,-0.0531,-0.0557,-0.0553,-0.0547,-0.0541,-0.0628,-0.0628,-0.0627,-0.0627,-0.0627,0,0.0177,0.0195,0.0197,0.021,0.0241,0.0214,0.0233,0.0206,0.0182,0.0201,0.0094,0.0097,-0.0103,-0.0195,-0.0335,-0.0459,-0.0488,-0.0556,-0.0572,-0.0541,-0.0533,-0.0584,-0.0578,-0.063,-0.0629,-0.0629,-0.0628,0,0.0219,0.0219,0.0251,0.0257,0.0263,0.0282,0.0295,0.0315,0.0277,0.0299,0.0286,0.0202,0.0092,-0.0091,-0.0282,-0.04,-0.0542,-0.0574,-0.0507,-0.0514,-0.0571,-0.0564,-0.0626,-0.0625,-0.0625,-0.0624,-0.0623,0,0.0242,0.0264,0.0294,0.0324,0.0327,0.0353,0.0384,0.0362,0.0399,0.0384,0.0419,0.0325,0.0296,0.0039,-0.0197,-0.0425,-0.0477,-0.0532,-0.0556,-0.0564,-0.0574,-0.0568,-0.0563,-0.055,-0.0549,-0.0548,-0.0547,0,0.029,0.0298,0.0329,0.0394,0.0432,0.0485,0.0529,0.0574,0.057,0.0595,0.0636,0.0607,0.0386,0.0181,-0.0121,-0.0281,-0.0503,-0.0517,-0.0565,-0.0537,-0.0493,-0.0501,-0.0499,-0.0539,-0.054,-0.054,-0.0541,-0.0541,0.0326,0.0362,0.0409,0.0472,0.0528,0.0617,0.068,0.0742,0.0817,0.0873,0.0827,0.08,0.0538,0.0184,-0.0095,-0.0398,-0.0399,-0.0514,-0.0518,-0.0522,-0.0485,-0.0439,-0.0468,-0.0468,-0.0468,-0.0469,-0.0469,0,0.038,0.0423,0.0488,0.0571,0.0656,0.0668,0.0786,0.0861,0.098,0.1018,0.1043,0.0825,0.0583,0.0275,-0.0149,-0.0403,-0.0459,-0.049,-0.0508,-0.0513,-0.0518,-0.0483,-0.0465,-0.0465,-0.0466,-0.0467,0,0,0.0412,0.0488,0.0526,0.0672,0.0736,0.0866,0.0946,0.1051,0.1115,0.1181,0.1161,0.1079,0.0701,0.04,0.0039,-0.0206,-0.0305,-0.0263,-0.0237,-0.0219,-0.0221,-0.05,-0.0445,0,0,0,0,0]}],[{"header":{"parameterUnit":"m.s-1","parameterCategory":2,"la1":30.2991,"la2":30.254,"lo1":-89.0895,"lo2":-89.0444,"dy":0.0017,"dx":0.0017,"nx":28,"ny":28,"refTime":"2025-03-09T03:00:00:Z","depth":"4","parameterNumber":2,"parameterNumberName":"U-component_of_CURRENTS"},"data":[0,0,0,0,0,0,0,0,0,0,0,0,0,0,0,0,0,0,0,0,0,0,0,0,0,0,0,0,0,0,0,0,0,0,0,0,0,0,0,0,0,0,0,0,0,0,0,0,0,0,0,0,0,0,0,0,0,0,0.0958,0.0959,0,0.1061,0.1062,0.1063,0.1126,0.1126,0.1127,0.1127,0.1178,0.1179,0.118,0,0,0,0,0,0,0,0,0,0,0,0,0,0.0825,0.0827,0.0958,0.0959,0.0961,0.1061,0.1063,0.1064,0.1126,0.1126,0.1127,0.1128,0.1178,0.1179,0.118,0,0,0,0,0,0,0,0,0,0,0,0,0,0.0899,0.0827,0.0958,0.1006,0.1011,0.1061,0.1063,0.1064,0.1126,0.1126,0.1127,0.1128,0.1178,0.1179,0.118,0.1174,0,0,0.1185,0.1185,0,0,0,0,0,0,0,0,0.0894,0.0903,0.0997,0.1002,0.1009,0.1083,0.1035,0.1099,0.1125,0.108,0.1127,0.1128,0.1143,0.1147,0.1162,0.1176,0.1178,0.1185,0.1186,0.1186,0.1186,0,0,0,0,0,0,0,0.0889,0.0899,0.0997,0.0999,0.1006,0.1026,0.1037,0.1047,0.1103,0.1084,0.1089,0.1104,0.1145,0.1161,0.1164,0.1179,0.1185,0.1186,0.1187,0.1187,0.1244,0.1245,0,0,0,0,0,0,0.088,0.0894,0.0993,0.1,0.0955,0.1028,0.104,0.1057,0.1104,0.1113,0.1103,0.1107,0.1158,0.1162,0.1166,0.1216,0.1186,0.1187,0.1188,0.1244,0.1244,0.1245,0,0,0,0,0,0,0.0877,0.0888,0.0989,0.0951,0.0966,0.1029,0.1048,0.1059,0.1101,0.112,0.1128,0.1138,0.1159,0.1164,0.12,0.1217,0.1188,0.1189,0.1243,0.1244,0.1245,0.1281,0,0,0,0,0,0,0.0872,0.0886,0.0907,0.095,0.0968,0.1038,0.1048,0.106,0.1109,0.1115,0.1152,0.1156,0.116,0.1198,0.1201,0.1218,0.119,0.1242,0.1243,0.1244,0.1279,0.1284,0.1287,0,0,0,0,0,0.0867,0.0894,0.0907,0.092,0.0991,0.1039,0.105,0.1096,0.111,0.1135,0.1159,0.1156,0.1208,0.12,0.1203,0.1221,0.1241,0.1243,0.1244,0.1277,0.1283,0.1287,0,0,0,0,0,0,0.0854,0.0904,0.092,0.0963,0.1005,0.1051,0.1085,0.1108,0.1149,0.116,0.117,0.1176,0.121,0.1211,0.1201,0.124,0.1222,0.1224,0.1246,0.1251,0.1255,0.1265,0.1191,0,0,0,0,0,0.0858,0.089,0.0936,0.0973,0.0996,0.1042,0.1072,0.1102,0.1139,0.116,0.1182,0.1201,0.1215,0.1231,0.1243,0.1269,0.1279,0.128,0.1284,0.1288,0.1298,0.1329,0.1337,0.125,0.125,0.125,0,0,0.0862,0.0896,0.0915,0.0973,0.101,0.1041,0.1063,0.1118,0.1142,0.1155,0.1201,0.1218,0.1224,0.1253,0.1268,0.1261,0.1318,0.129,0.1293,0.1301,0.1331,0.134,0.1347,0.1251,0.1251,0.1251,0,0,0.0879,0.0919,0.0946,0.0981,0.1041,0.1064,0.1083,0.114,0.1169,0.121,0.1221,0.1257,0.128,0.1294,0.1299,0.1332,0.1336,0.1332,0.1366,0.1395,0.1403,0.141,0.1436,0.1445,0.1337,0.1337,0.1337,0,0.0884,0.0922,0.0963,0.0996,0.1027,0.1073,0.1104,0.1134,0.1195,0.1225,0.123,0.1288,0.1298,0.133,0.1345,0.1343,0.136,0.1347,0.1402,0.1408,0.1415,0.144,0.145,0.1339,0.1339,0.1338,0.1338,0,0.0907,0.0947,0.097,0.1017,0.1055,0.1095,0.1136,0.1176,0.1212,0.1248,0.1305,0.1326,0.1367,0.1369,0.1369,0.1418,0.1416,0.1401,0.1391,0.1426,0.145,0.146,0.1342,0.1341,0.134,0.134,0,0,0.0896,0.0969,0.098,0.1005,0.1071,0.1102,0.1145,0.1202,0.1241,0.1295,0.1345,0.1382,0.1419,0.1427,0.1435,0.1462,0.1523,0.1459,0.1459,0.1488,0.1595,0.152,0.1523,0.1521,0.1523,0.1524,0.1596,0,0.0903,0.0954,0.0993,0.1042,0.1071,0.1125,0.1162,0.1223,0.1273,0.1331,0.1374,0.1428,0.143,0.1464,0.1492,0.1511,0.1549,0.1505,0.1555,0.1556,0.1487,0.1531,0.153,0.1602,0.1604,0.1606,0.1607,0,0.0909,0.0944,0.0991,0.1059,0.108,0.1115,0.1191,0.1236,0.1323,0.1366,0.1434,0.1477,0.1538,0.1527,0.1597,0.1572,0.1598,0.1608,0.1611,0.1535,0.1498,0.1559,0.1623,0.1622,0.1621,0.162,0.1619,0,0.0872,0.0944,0.0979,0.1003,0.1083,0.1121,0.1171,0.1259,0.1308,0.1407,0.146,0.1528,0.1579,0.1616,0.1655,0.1639,0.1716,0.1692,0.1651,0.1646,0.1676,0.1668,0.1753,0.1753,0.1753,0.1753,0.1753,0,0.0857,0.0889,0.0969,0.0988,0.1043,0.1112,0.1186,0.1243,0.1334,0.1402,0.149,0.1545,0.1608,0.1661,0.1678,0.1692,0.1743,0.1671,0.1664,0.1689,0.1682,0.1683,0.1674,0.1755,0.1755,0.1754,0.1754,0,0.0813,0.0864,0.091,0.0995,0.1029,0.1074,0.1188,0.1235,0.1338,0.1423,0.1466,0.1575,0.1654,0.1702,0.1761,0.1722,0.1739,0.1736,0.1773,0.1764,0.1645,0.1637,0.1696,0.1694,0.1692,0.1691,0.169,0,0.0794,0.0814,0.0906,0.0939,0.0983,0.1064,0.1118,0.1223,0.1276,0.1435,0.1464,0.1589,0.1656,0.1676,0.1726,0.1757,0.1745,0.1736,0.1682,0.1654,0.1642,0.1636,0.1631,0.1687,0.1687,0.1686,0.1686,0,0.0754,0.0794,0.0832,0.0903,0.0961,0.1024,0.1112,0.1139,0.1269,0.1364,0.145,0.1512,0.1597,0.1638,0.1675,0.1691,0.1722,0.1718,0.1721,0.1671,0.1644,0.1632,0.1629,0.168,0.1681,0.1681,0.1682,0,0.0729,0.0744,0.0804,0.0862,0.0929,0.0975,0.1026,0.1101,0.1168,0.1331,0.1354,0.1489,0.1581,0.1607,0.1638,0.1649,0.1632,0.1573,0.1583,0.159,0.1522,0.1471,0.146,0,0,0,0,0,0.0701,0.0717,0.0762,0.0821,0.0883,0.0929,0.102,0.1072,0.1187,0.1218,0.1285,0.1368,0.1444,0.1506,0.15,0.1597,0.1631,0.1582,0.1565,0.1648,0.1654,0.1584,0,0,0,0,0,0,0.0683,0.0721,0.0741,0.0779,0.0812,0.0878,0.0932,0.1007,0.1035,0.1153,0.1201,0.1295,0.1383,0.1438,0.1477,0.1496,0.1461,0.1659,0.1656,0.1644,0.165,0.1655,0.1585,0,0,0,0,0]},{"header":{"parameterUnit":"m.s-1","parameterCategory":2,"la1":30.2991,"la2":30.254,"lo1":-89.0895,"lo2":-89.0444,"dy":0.0017,"dx":0.0017,"nx":28,"ny":28,"refTime":"2025-03-09T03:00:00:Z","depth":"4","parameterNumber":3,"parameterNumberName":"V-component_of_CURRENTS"},"data":[0,0,0,0,0,0,0,0,0,0,0,0,0,0,0,0,0,0,0,0,0,0,0,0,0,0,0,0,0,0,0,0,0,0,0,0,0,0,0,0,0,0,0,0,0,0,0,0,0,0,0,0,0,0,0,0,0,0,0.0142,0.0141,0,0.0056,0.0055,0.0054,0.001,0.001,0.001,0.001,-0.0051,-0.0052,-0.0054,0,0,0,0,0,0,0,0,0,0,0,0,0,0.0219,0.0218,0.0142,0.0141,0.0139,0.0056,0.0055,0.0054,0.001,0.001,0.001,0.001,-0.005,-0.0052,-0.0054,0,0,0,0,0,0,0,0,0,0,0,0,0,0.0166,0.0218,0.0142,0.0107,0.0103,0.0056,0.0055,0.0053,0.001,0.001,0.001,0.0009,-0.005,-0.0052,-0.0054,-0.0064,0,0,-0.0061,-0.0062,0,0,0,0,0,0,0,0,0.0169,0.0163,0.0113,0.0109,0.0105,0.0043,0.006,0.0015,0.001,0.0046,0.001,0.0009,-0.0018,-0.0023,-0.0037,-0.0067,-0.0069,-0.0061,-0.0062,-0.0063,-0.0064,0,0,0,0,0,0,0,0.0173,0.0166,0.0109,0.0112,0.0107,0.0079,0.0071,0.0051,0.0018,0.0043,0.0039,0.0028,-0.002,-0.0035,-0.0039,-0.007,-0.0061,-0.0063,-0.0064,-0.0065,-0.0105,-0.0105,0,0,0,0,0,0,0.0184,0.017,0.0111,0.0106,0.0136,0.0078,0.0069,0.0063,0.0017,0.0009,0.0029,0.0027,-0.0031,-0.0036,-0.0041,-0.0037,-0.0063,-0.0065,-0.0067,-0.0105,-0.0105,-0.0105,0,0,0,0,0,0,0.0186,0.018,0.0115,0.0135,0.0125,0.0077,0.007,0.0062,0.0041,0.0006,-0.0001,0.0016,-0.0032,-0.0038,-0.006,-0.004,-0.0066,-0.0069,-0.0106,-0.0105,-0.0105,-0.004,0,0,0,0,0,0,0.0189,0.0181,0.0181,0.0136,0.0124,0.0088,0.007,0.006,0.0034,0.0031,-0.0008,-0.0013,-0.0032,-0.0056,-0.0062,-0.0044,-0.007,-0.0106,-0.0106,-0.0105,-0.0043,-0.0037,-0.0033,0,0,0,0,0,0.0192,0.0191,0.0182,0.0174,0.0125,0.0088,0.0079,0.0045,0.0034,0.0026,0.0002,-0.0012,-0.0057,-0.0058,-0.0065,-0.0047,-0.0106,-0.0106,-0.0105,-0.0045,-0.0038,-0.0033,0,0,0,0,0,0,0.0218,0.0185,0.0174,0.0161,0.0129,0.008,0.0068,0.0045,0.0018,0.0016,-0.0014,-0.0022,-0.0031,-0.0053,-0.0054,-0.0058,-0.0082,-0.0082,-0.0033,-0.0028,-0.0023,-0.0003,-0.0072,0,0,0,0,0,0.0226,0.0221,0.018,0.017,0.0155,0.0113,0.0093,0.007,0.0038,0.0025,0.0001,-0.0021,-0.0034,-0.0042,-0.0062,-0.0068,-0.0088,-0.006,-0.0055,-0.0051,-0.004,-0.0049,-0.0044,-0.0103,-0.0103,-0.0103,0,0,0.0233,0.0214,0.0211,0.0176,0.0149,0.014,0.01,0.0072,0.0073,0.0024,0.0019,-0.0009,-0.0033,-0.0036,-0.0042,-0.0052,-0.0049,-0.005,-0.0046,-0.0038,-0.0048,-0.0042,-0.0037,-0.0102,-0.0102,-0.0102,0,0,0.0247,0.0228,0.023,0.021,0.0173,0.0152,0.0146,0.01,0.0089,0.0073,0.0048,0.0032,0.0001,-0.0004,-0.001,0.0007,-0.0025,-0.0004,0.004,0.0031,0.0036,0.0041,0.001,0.0011,0.0001,0.0002,0.0002,0,0.0256,0.0256,0.0222,0.0219,0.0212,0.0164,0.0167,0.015,0.0106,0.0105,0.0081,0.0051,0.0025,0.0039,0.0042,0.0022,-0.0002,0.0023,0.0039,0.0043,0.0047,0.0014,0.0014,0.0005,0.0004,0.0004,0.0004,0,0.0271,0.0273,0.0271,0.0263,0.025,0.0241,0.0217,0.0209,0.0188,0.0169,0.0164,0.0127,0.0111,0.0102,0.0075,0.0091,0.0059,0.0046,0.003,0.0057,0.0019,0.0019,0.0009,0.0008,0.0007,0.0006,0,0,0.0283,0.0284,0.0284,0.0298,0.0275,0.0268,0.028,0.0274,0.0288,0.0251,0.0265,0.0239,0.0207,0.0197,0.0164,0.0155,0.0147,0.0111,0.0109,0.0088,0.0108,0.0062,0.0056,0.0135,0.0135,0.0136,0.0068,0,0.0304,0.0326,0.0318,0.0346,0.0356,0.0336,0.0356,0.0347,0.0331,0.0332,0.0302,0.0293,0.0249,0.0236,0.0224,0.0168,0.015,0.0166,0.0078,0.0075,0.0038,0.0056,0.0138,0.0067,0.0067,0.0067,0.0067,0,0.032,0.0338,0.0371,0.0403,0.0405,0.0418,0.0442,0.0452,0.0445,0.043,0.0416,0.0375,0.0358,0.0311,0.0248,0.0256,0.0188,0.0142,0.0138,0.0076,0.0029,0.0036,0.0065,0.0065,0.0065,0.0065,0.0066,0,0.0347,0.0375,0.0412,0.0418,0.0443,0.0463,0.0478,0.0481,0.0498,0.0487,0.0483,0.0453,0.0426,0.0364,0.0256,0.0249,0.0175,0.0155,0.0051,0.0045,0.0079,0.0075,0.0111,0.0111,0.0111,0.0111,0.0112,0,0.0371,0.04,0.0431,0.0449,0.0499,0.0504,0.0551,0.0553,0.0567,0.0585,0.0534,0.0527,0.0436,0.0373,0.0282,0.0163,0.0194,0.0062,0.0032,0.0103,0.0103,0.0077,0.0074,0.0109,0.0109,0.011,0.011,0,0.0387,0.0407,0.0452,0.0495,0.0511,0.0546,0.0595,0.0627,0.0629,0.0648,0.0643,0.0582,0.0486,0.0385,0.0267,0.0186,0.0086,0.0031,0.0105,0.008,-0.0049,-0.0048,-0.0085,-0.0087,-0.0089,-0.009,-0.0091,0,0.0397,0.0423,0.0482,0.0512,0.0531,0.0587,0.0625,0.0652,0.0679,0.0674,0.068,0.0594,0.0532,0.0349,0.0233,0.0062,0.0027,-0.0028,-0.0029,-0.004,-0.0066,-0.0062,-0.0059,-0.0094,-0.0095,-0.0095,-0.0095,0,0.0416,0.0437,0.0474,0.0536,0.0582,0.0642,0.0691,0.0716,0.0741,0.0743,0.0699,0.0591,0.0475,0.0329,0.0188,0.0068,0.0015,-0.0047,-0.0044,-0.0045,-0.0052,-0.0074,-0.0069,-0.0101,-0.0101,-0.01,-0.01,0,0.0425,0.0454,0.0501,0.0554,0.0616,0.0671,0.0704,0.0729,0.0756,0.0743,0.0724,0.0601,0.0533,0.033,0.0211,0.008,0.0037,-0.0003,-0.0004,0.0001,0.0041,0.0047,0.0009,0,0,0,0,0,0.043,0.0461,0.0514,0.0574,0.0637,0.0675,0.0735,0.0763,0.0784,0.0754,0.0741,0.0628,0.0423,0.0343,0.0202,0.0165,0.0011,-0.0007,-0.0035,-0.0134,-0.0128,-0.01,0,0,0,0,0,0,0.0432,0.048,0.051,0.058,0.0624,0.0697,0.074,0.0757,0.0742,0.0738,0.0638,0.0582,0.0392,0.0504,0.0196,0.0156,0.0115,-0.0098,-0.0101,-0.0138,-0.0132,-0.0127,-0.0095,0,0,0,0,0]}]]